QPF
0.00 0.00 0.00 0.00 0.00 0.00 0.00 0.00 0.00 0.00 0.00 0.00 0.00 0.00 0.00 0.00 0.00 0.00 0.00 0.00 0.00 0.00
0.00 0.00 0.00 0.00 0.00 0.00 0.00 0.00 0.00 0.00 0.00 0.00 0.00 0.00 0.00 0.00 0.00 0.00 0.00 0.00 0.00 0.00
0.00 0.00 0.00 0.00 0.00 0.00 0.00 0.00 0.00 0.00 0.00 0.00 0.00 0.00 0.00 0.00 0.00 0.00 0.00 0.00 0.00 0.00
0.00 0.00 0.00 0.00 0.00 0.00 0.00 0.00 0.00 0.00 0.00 0.00 0.00 0.00 0.00 0.00 0.00 0.00 0.00 0.00 0.00 0.00
0.00 0.00 0.00 0.00 0.00 0.00 0.00 0.00 0.00 0.00 0.00 0.00 0.00 0.00 0.00 0.00 0.00 0.00 0.00 0.00 0.00 0.00
0.01 0.00 0.01 0.00 0.00 0.00 0.00 0.00 0.00 0.00 0.00 0.00 0.00 0.00 0.00 0.00 0.00 0.00 0.01 0.01 0.01 0.00
0.02 0.01 0.00 0.00 0.00 0.00 0.00 0.00 0.00 0.00 0.00 0.00 0.00 0.00 0.00 0.00 0.00 0.01 0.00 0.00 0.00 0.00
0.05 0.01 0.00 0.00 0.00 0.00 0.00 0.00 0.00 0.00 0.00 0.00 0.00 0.00 0.00 0.00 0.00 0.00 0.00 0.00 0.00 0.00
0.11 0.03 0.00 0.00 0.00 0.00 0.00 0.00 0.00 0.00 0.00 0.00 0.00 0.00 0.00 0.00 0.00 0.00 0.00 0.00 0.00 0.00
0.09 0.04 0.01 0.00 0.00 0.00 0.00 0.00 0.00 0.00 0.00 0.00 0.00 0.00 0.00 0.00 0.01 0.00 0.00 0.00 0.00 0.00
0.09 0.04 0.00 0.00 0.00 0.00 0.00 0.00 0.00 0.00 0.00 0.00 0.00 0.00 0.00 0.01 0.01 0.00 0.00 0.00 0.00 0.00
0.06 0.01 0.00 0.00 0.00 0.00 0.00 0.00 0.01 0.01 0.03 0.03 0.01 0.00 0.00 0.00 0.00 0.00 0.00 0.00 0.00 0.00
0.04 0.00 0.00 0.00 0.00 0.00 0.00 0.02 0.07 0.07 0.12 0.07 0.01 0.00 0.00 0.00 0.00 0.00 0.00 0.00 0.00 0.00
0.01 0.00 0.00 0.01 0.01 0.02 0.05 0.11 0.14 0.10 0.03 0.00 0.01 0.00 0.00 0.00 0.00 0.00 0.00 0.00 0.00 0.00
MSLP
1013.93 1014.55 1015.12 1015.52 1016.03 1016.26 1016.37 1016.25 1016.39 1016.63 1016.70 1016.87 1016.78 1016.81 1016.80 1017.02 1017.14 1017.25 1017.28 1017.52 1017.50 1017.51
1013.64 1014.31 1014.75 1015.22 1015.41 1015.78 1015.98 1016.10 1016.22 1016.25 1016.55 1016.56 1016.52 1016.56 1016.74 1016.86 1016.98 1017.08 1017.04 1017.13 1017.29 1017.50
1013.12 1013.61 1014.19 1014.71 1015.07 1015.31 1015.45 1015.79 1016.03 1016.17 1016.40 1016.39 1016.40 1016.50 1016.59 1016.62 1016.55 1016.64 1016.68 1016.68 1016.90 1017.03
1012.59 1013.19 1013.87 1014.23 1014.61 1014.85 1015.13 1015.43 1015.75 1015.84 1016.14 1016.25 1016.24 1016.21 1016.32 1016.33 1016.33 1016.43 1016.39 1016.33 1016.36 1016.30
1011.93 1012.80 1013.60 1014.01 1014.17 1014.26 1014.64 1014.87 1015.13 1015.41 1015.63 1015.81 1015.86 1015.88 1016.01 1016.02 1015.85 1015.90 1015.99 1015.89 1016.06 1015.96
1011.58 1012.46 1012.91 1013.32 1013.60 1013.81 1014.08 1014.43 1014.91 1015.03 1015.12 1015.26 1015.38 1015.36 1015.36 1015.46 1015.48 1015.56 1015.42 1015.37 1015.45 1015.56
1010.48 1011.20 1011.75 1012.22 1012.76 1013.15 1013.62 1014.06 1014.33 1014.39 1014.48 1014.58 1014.75 1014.90 1014.96 1015.00 1014.95 1014.82 1014.81 1014.92 1015.07 1015.05
1009.88 1010.41 1010.83 1011.11 1011.60 1012.28 1013.02 1013.23 1013.48 1013.84 1014.03 1014.17 1014.32 1014.26 1014.17 1014.18 1014.33 1014.34 1014.32 1014.43 1014.51 1014.52
1009.27 1009.97 1010.60 1010.80 1011.05 1011.63 1012.10 1012.72 1013.06 1013.40 1013.66 1013.90 1013.95 1013.70 1013.70 1013.62 1013.82 1013.98 1014.18 1014.36 1014.24 1014.27
1008.61 1010.11 1009.99 1010.12 1010.87 1010.96 1011.49 1012.19 1012.64 1013.04 1013.26 1013.37 1013.30 1013.30 1013.38 1013.30 1013.41 1013.77 1013.95 1014.30 1014.32 1013.96
1009.02 1009.53 1009.38 1009.70 1009.98 1010.22 1010.98 1011.59 1012.08 1012.49 1012.75 1013.07 1013.13 1013.13 1013.11 1013.02 1013.45 1013.37 1013.75 1013.77 1013.69 1013.64
1008.69 1008.14 1008.71 1008.99 1009.26 1009.65 1010.78 1011.54 1011.98 1011.76 1012.18 1012.74 1012.93 1012.71 1012.82 1012.96 1013.38 1013.21 1013.12 1013.23 1013.30 1013.21
1006.92 1007.46 1007.80 1008.31 1008.91 1009.58 1010.21 1010.79 1011.59 1011.65 1012.21 1012.56 1012.38 1012.19 1012.32 1012.76 1013.11 1013.13 1013.07 1013.17 1013.10 1012.58
1006.24 1006.87 1007.63 1008.62 1009.67 1010.38 1011.55 1011.57 1010.95 1010.94 1011.25 1011.62 1011.98 1011.97 1012.11 1012.49 1013.26 1013.12 1013.18 1013.31 1012.97 1012.32
Thickness
5770 5764 5757 5751 5743 5739 5735 5733 5731 5726 5723 5720 5718 5715 5712 5709 5705 5701 5698 5692 5690 5687
5767 5760 5755 5748 5744 5738 5734 5732 5728 5724 5720 5717 5714 5710 5707 5703 5699 5695 5692 5687 5683 5676
5765 5760 5753 5746 5740 5737 5734 5730 5725 5720 5715 5713 5710 5706 5702 5699 5698 5693 5688 5684 5678 5672
5765 5756 5748 5743 5738 5734 5732 5727 5721 5717 5711 5707 5703 5702 5697 5694 5691 5685 5681 5678 5673 5670
5763 5752 5742 5738 5736 5735 5730 5725 5719 5714 5707 5703 5699 5697 5692 5688 5686 5681 5675 5671 5666 5662
5758 5747 5741 5737 5733 5730 5726 5719 5712 5708 5704 5699 5695 5693 5690 5685 5680 5674 5670 5666 5660 5654
5758 5751 5744 5740 5732 5726 5721 5714 5708 5706 5702 5698 5693 5688 5684 5680 5674 5671 5666 5659 5652 5647
5757 5752 5745 5740 5734 5726 5717 5714 5709 5702 5698 5693 5689 5686 5681 5676 5670 5666 5660 5654 5647 5642
5752 5743 5740 5736 5729 5721 5717 5709 5703 5696 5692 5687 5684 5682 5675 5673 5667 5660 5651 5645 5639 5634
5752 5733 5735 5732 5721 5717 5712 5704 5697 5690 5686 5684 5681 5678 5671 5667 5660 5650 5643 5635 5629 5627
5731 5728 5733 5725 5720 5715 5707 5700 5695 5687 5681 5677 5674 5669 5665 5660 5648 5644 5636 5630 5625 5620
5729 5735 5727 5722 5717 5711 5698 5689 5683 5683 5678 5671 5664 5662 5656 5649 5641 5638 5631 5624 5618 5615
5741 5734 5730 5719 5709 5702 5690 5683 5671 5672 5668 5661 5658 5657 5651 5641 5634 5627 5621 5614 5609 5610
5740 5732 5720 5705 5694 5682 5664 5662 5664 5667 5665 5659 5655 5649 5643 5633 5620 5615 5609 5601 5600 5601